This is the latest recevied weather packets stored in our database for station/object K6FAK-13. If no packets are shown the sender has not sent any weather packets the latest 10 day(s).
| Time | Temp. | Humidity | Pressure | Rain* | Wind** | Luminosity | Snow |
|---|---|---|---|---|---|---|---|
| 1777926830 | 17.22° C | 64% | 1017.7 hPa | 0 mm | - | 288 W/m² | - |
| 1777925618 | 17.22° C | 67% | 1017.7 hPa | 0 mm | - | 242 W/m² | - |
| 1777925011 | 16.67° C | 68% | 1017.5 hPa | 0 mm | - | 308 W/m² | - |
| 1777924708 | 16.67° C | 68% | 1017.5 hPa | 0 mm | - | 286 W/m² | - |
| 1777924403 | 16.67° C | 69% | 1017.5 hPa | 0 mm | - | 266 W/m² | - |
| 1777924101 | 16.67° C | 69% | 1017.6 hPa | 0 mm | - | 253 W/m² | - |
| 1777923190 | 16.67° C | 70% | 1017.8 hPa | 0 mm | - | 245 W/m² | - |
| 1777922889 | 16.67° C | 70% | 1017.7 hPa | 0 mm | - | 261 W/m² | - |
| 1777922285 | 16.67° C | 70% | 1017.9 hPa | 0 mm | - | 217 W/m² | - |
| 1777921982 | 16.67° C | 69% | 1017.9 hPa | 0 mm | - | 187 W/m² | - |
| 1777921677 | 16.67° C | 67% | 1017.8 hPa | 0 mm | - | 174 W/m² | - |
| 1777921070 | 16.67° C | 66% | 1017.7 hPa | 0 mm | - | 181 W/m² | - |
| 1777919855 | 16.11° C | 73% | 1017.7 hPa | 0 mm | - | 189 W/m² | - |
| 1777919552 | 16.67° C | 72% | 1017.8 hPa | 0 mm | - | 193 W/m² | - |
| 1777919250 | 16.67° C | 73% | 1017.7 hPa | 0 mm | - | 197 W/m² | - |
| 1777918947 | 16.67° C | 72% | 1017.8 hPa | 0 mm | - | 186 W/m² | - |
| 1777918645 | 16.67° C | 70% | 1018 hPa | 0 mm | - | 157 W/m² | - |
| 1777918342 | 17.22° C | 69% | 1017.7 hPa | 0 mm | - | 145 W/m² | - |
| 1777918041 | 16.67° C | 64% | 1017.8 hPa | 0 mm | - | 144 W/m² | - |
| 1777917739 | 16.67° C | 66% | 1017.6 hPa | 0 mm | - | 150 W/m² | - |
| 1777917133 | 17.22° C | 67% | 1017.4 hPa | 0 mm | - | 196 W/m² | - |
| 1777916529 | 17.22° C | 68% | 1017 hPa | 0 mm | - | 243 W/m² | - |
| 1777916225 | 16.67° C | 69% | 1017.2 hPa | 0 mm | - | 290 W/m² | - |
| 1777915922 | 16.67° C | 69% | 1017.3 hPa | 0 mm | - | 314 W/m² | - |
| 1777915618 | 16.11° C | 72% | 1017.4 hPa | 0 mm | - | 312 W/m² | - |
* Rain latest hour (hover to see other rain measurements)
** Current wind speed in m/s (hover to see current wind gust speed)